Asheville, NC

6:05 AM EDT on April 30, 2017 (GMT -0400)
Asheville Regional

Weather History for KAVL - January, 2015

Change the Weather History Date:

Wednesday, January 14, 2015

  Actual Average Record
Temperature  
Mean Temperature 39 °F 37 °F  
Max Temperature 45 °F 47 °F 76 °F (1932)
Min Temperature 32 °F 26 °F -4 °F (1893)
Degree Days  
Heating Degree Days 26 28  
Month to date heating degree days 416 392  
Since 1 July heating degree days 1970 2053  
Cooling Degree Days 0 0  
Month to date cooling degree days 0 0  
Year to date cooling degree days 0 0  
Moisture  
Dew Point 31 °F    
Average Humidity 81    
Maximum Humidity 96    
Minimum Humidity 65    
Precipitation  
Precipitation 0.00 in 0.12 in 3.88 in (1995)
Month to date precipitation 2.23 1.60  
Year to date precipitation 2.23 1.60  
Snow  
Snow 0.00 in 0.20 in 4.40 in (1982)
Month to date snowfall T 1.8  
Since 1 July snowfall 3.2 2.8  
Snow Depth 0.00 in    
Sea Level Pressure  
Sea Level Pressure 30.22 in    
Wind  
Wind Speed 8 mph (NNW)    
Max Wind Speed 20 mph    
Max Gust Speed 23 mph    
Visibility 7 miles    
Events      
T = Trace of Precipitation, MM = Missing Value Source: NWS Daily Summary

Daily Weather History Graph

Daily Weather History Graph

Search for Another Location

Airport or City:

Trip Planner

Search our weather history database for the weather conditions in past years. The results will help you decide how hot, cold, wet, or windy it might be!

Date:

Astronomy

Jan. 14, 2015 Rise Set
Actual Time 7:39 AM EST 5:39 PM EST
Civil Twilight 7:11 AM EST 6:07 PM EST
Nautical Twilight 6:39 AM EST 6:38 PM EST
Astronomical Twilight 6:09 AM EST 7:09 PM EST
Moon 1:36 AM EST (1/14) 12:48 PM EST (1/14)
Length of Visible Light 10h 56m
Length of Day
10h 00m
Last Quarter, 37% of the Moon is Illuminated
Jan 14
Last Quarter
Jan 20
New
Jan 26
First Quarter
Feb 3
Full
Feb 11
Last Quarter

Hourly Weather History & Observations

Time (EST) Temp. Windchill Dew Point Humidity Pressure Visibility Wind Dir Wind Speed Gust Speed Precip Events Conditions
12:54 AM 33.1 °F 26.9 °F 30.9 °F 92% 30.29 in 10.0 mi South 6.9 mph - N/A   Overcast
1:05 AM 33.1 °F 27.7 °F 30.9 °F 92% 30.26 in 10.0 mi SSE 5.8 mph - N/A   Overcast
1:54 AM 33.1 °F 28.7 °F 30.9 °F 92% 30.27 in 10.0 mi South 4.6 mph - N/A   Overcast
2:54 AM 32.0 °F 28.7 °F 30.9 °F 96% 30.27 in 7.0 mi South 3.5 mph - N/A   Overcast
3:54 AM 32.0 °F 28.7 °F 30.9 °F 96% 30.27 in 4.0 mi South 3.5 mph - N/A   Overcast
4:08 AM 32.0 °F 28.7 °F 30.9 °F 96% 30.23 in 3.0 mi South 3.5 mph - N/A   Overcast
4:23 AM 32.0 °F - 30.9 °F 96% 30.23 in 2.5 mi Calm Calm - N/A   Overcast
4:38 AM 32.0 °F - 30.9 °F 96% 30.22 in 1.8 mi Calm Calm - N/A   Overcast
4:54 AM 32.0 °F - 30.9 °F 96% 30.25 in 1.5 mi Calm Calm - N/A   Overcast
5:02 AM 32.0 °F - 30.9 °F 96% 30.23 in 1.2 mi Calm Calm - N/A   Overcast
5:54 AM 32.0 °F - 30.9 °F 96% 30.25 in 1.0 mi Calm Calm - N/A   Overcast
6:18 AM 32.0 °F - 30.9 °F 96% 30.22 in 0.8 mi Calm Calm - N/A   Mist
6:54 AM 32.0 °F - 30.9 °F 96% 30.25 in 0.8 mi Calm Calm - N/A   Mist
7:30 AM 32.0 °F - 30.9 °F 96% 30.22 in 1.0 mi Calm Calm - N/A   Overcast
7:42 AM 32.0 °F - 30.9 °F 96% 30.22 in 1.8 mi Calm Calm - N/A   Overcast
7:49 AM 32.0 °F 28.7 °F 30.2 °F 93% 30.21 in 2.0 mi NNW 3.5 mph - N/A   Overcast
7:54 AM 33.1 °F 30.0 °F 30.9 °F 92% 30.25 in 1.8 mi NW 3.5 mph - N/A   Overcast
8:04 AM 33.1 °F - 30.9 °F 92% 30.22 in 2.0 mi Calm Calm - N/A   Overcast
8:11 AM 33.1 °F - 30.9 °F 92% 30.22 in 1.8 mi Calm Calm - N/A   Overcast
8:19 AM 33.1 °F - 32.0 °F 96% 30.22 in 3.0 mi Calm Calm - N/A   Overcast
8:54 AM 34.0 °F 31.0 °F 32.0 °F 92% 30.25 in 7.0 mi North 3.5 mph - N/A   Overcast
9:20 AM 34.0 °F 28.8 °F 33.1 °F 96% 30.23 in 8.0 mi North 5.8 mph - N/A   Overcast
9:28 AM 35.1 °F 29.3 °F 33.1 °F 92% 30.23 in 9.0 mi North 6.9 mph - N/A   Overcast
9:54 AM 35.1 °F 29.3 °F 33.1 °F 92% 30.26 in 10.0 mi North 6.9 mph - N/A   Overcast
10:54 AM 39.0 °F 33.4 °F 34.0 °F 82% 30.24 in 10.0 mi NNW 8.1 mph - N/A   Overcast
11:54 AM 41.0 °F 33.5 °F 35.1 °F 79% 30.21 in 10.0 mi NNW 13.8 mph - N/A   Mostly Cloudy
12:16 PM 43.0 °F 35.7 °F 35.1 °F 74% 30.18 in 10.0 mi NNW 15.0 mph - N/A   Partly Cloudy
12:54 PM 44.1 °F 37.4 °F 35.1 °F 71% 30.17 in 10.0 mi North 13.8 mph - N/A   Scattered Clouds
1:54 PM 44.1 °F 36.8 °F 33.1 °F 65% 30.15 in 10.0 mi NNW 16.1 mph - N/A   Clear
2:54 PM 44.1 °F 37.1 °F 33.1 °F 65% 30.15 in 10.0 mi NNW 15.0 mph - N/A   Scattered Clouds
3:06 PM 45.0 °F 39.7 °F 33.1 °F 63% 30.13 in 10.0 mi NNW 10.4 mph - N/A   Mostly Cloudy
3:54 PM 41.0 °F 33.5 °F 32.0 °F 70% 30.15 in 10.0 mi North 13.8 mph - N/A   Overcast
4:54 PM 39.0 °F 31.4 °F 30.9 °F 73% 30.17 in 10.0 mi North 12.7 mph - N/A   Overcast
5:47 PM 37.9 °F 30.9 °F 30.9 °F 76% 30.15 in 10.0 mi NNW 10.4 mph - N/A   Overcast
5:54 PM 37.0 °F 29.3 °F 30.9 °F 79% 30.18 in 10.0 mi NW 11.5 mph - N/A   Overcast
6:54 PM 37.0 °F 29.3 °F 30.0 °F 76% 30.19 in 10.0 mi North 11.5 mph - N/A   Overcast
7:54 PM 36.0 °F 30.3 °F 28.9 °F 76% 30.20 in 10.0 mi North 6.9 mph - N/A   Overcast
8:54 PM 35.1 °F 28.6 °F 28.0 °F 76% 30.20 in 10.0 mi North 8.1 mph - N/A   Overcast
9:54 PM 34.0 °F 26.0 °F 27.0 °F 75% 30.19 in 10.0 mi North 10.4 mph - N/A   Overcast
10:54 PM 33.1 °F 25.5 °F 27.0 °F 78% 30.19 in 10.0 mi North 9.2 mph - N/A   Overcast
11:54 PM 32.0 °F 24.8 °F 27.0 °F 82% 30.18 in 10.0 mi NNW 8.1 mph - N/A   Scattered Clouds